Hovedside
METAR-TAF:

METAR-TAF

Lufthavner :

Enontekiö lufthavn

Enontekis, Finland

breddegrad: 68-21-52N, lengdegrad: 023-25-39E, høyde over havet: 308 m

Gjeldene værobservasjon

Denne rapporten ble laget for 25 minutter siden, klokken 17:20 UTC
Vind 2 kt fra skiftende retning
Temperatur -7°C
Luftfuktighet 93%
Trykk 1025 hPa
Sikt 10 km eller mer
Overskyet i en høyde av 400 ft

METAR: EFET 181720Z AUTO VRB02KT 9999 OVC004 M07/M08 Q1025

Tid: 19:45 (17:45 UTC)


TAF: fraværende

Værobservasjoner og værvarsel for over 4000 flyplasser (METAR- og TAF-rapporter).

Tilgjengelige stasjoner er representert av de røde og gule prikkene på kartet.

Hold musepekeren over prikken for å se navnet på stasjonen.

Klikk så for å se værobservasjoner og -varsler.

For å forandre kartet kan du klikke på den grønne knappen med svart kryss for å zoome inn, på den grønne knappen med strek for å zoome ut, eller på de grønne pilene for å se tilstøtende kart.


METAR-TAF: